CAPE
2160 2673 2766 3087 3214 2905 2783 2692 1968 1568 16 3 0 0 0 2135 2322 2482 2520 2019 2032 2014 1166 970 1414 1562 1126 1019 1295 306 102 39 77 314 531 660 632 430 511 73 77 0 0
1870 2531 2675 2834 2962 3065 2971 2697 2564 1946 1425 802 141 0 1296 2167 2296 2509 2412 1922 1603 1813 1999 1709 1869 2128 1608 1159 1285 1868 1303 193 248 336 409 374 260 300 282 184 44 8 0
1995 2449 2502 2730 2800 2816 2827 2722 2496 2472 2312 2333 2669 2542 2538 2746 2549 2146 139 0 61 314 1051 1943 1896 1565 1682 1595 1649 1497 1181 1027 376 282 146 422 284 118 262 186 18 4 0
2386 2808 2579 2758 2775 2652 2546 2552 2455 2361 2397 2410 2370 2987 2920 2655 2322 358 2 12 129 520 982 1059 806 1207 1347 1590 1781 1456 1156 718 508 84 86 133 229 185 217 268 224 35 0
2034 2106 3006 2895 2743 2876 3187 2990 2954 2598 2324 2487 2505 2346 2177 1867 826 242 0 0 1 120 773 585 201 29 163 166 232 594 283 226 103 18 41 121 64 170 192 73 129 5 0
2400 2635 2577 2331 2626 2670 2580 2834 2846 2223 1866 1912 1869 1514 596 768 392 139 0 0 0 0 20 460 34 0 0 249 416 342 533 131 150 39 157 149 51 3 18 70 46 0 0
2390 2323 2482 2694 2656 2332 2145 1673 1687 742 809 610 336 215 434 352 399 325 6 1 0 47 138 424 431 57 202 703 1059 660 183 283 119 15 270 182 92 0 75 78 21 0 0
2014 2164 2275 2083 1897 1436 1206 1594 988 832 547 330 647 492 719 606 433 242 114 144 236 606 656 846 851 820 676 746 453 523 376 186 54 207 275 123 64 37 13 46 19 4 0
1843 1900 1972 1870 1814 1737 1697 1652 1634 1604 1633 1621 1585 1594 1759 1627 1124 463 31 319 265 215 266 391 712 838 72 1 250 377 500 159 1 0 58 87 5 29 16 2 1 0 2
1613 1565 1551 1656 1657 1557 1462 1516 1476 1315 1263 1297 1127 1151 1300 1119 890 25 1 182 355 169 132 229 1 1 1 1 76 394 591 468 54 1 1 1 0 0 0 0 0 0 0
1508 1573 1717 1619 1493 1415 1548 1631 1538 1452 1592 1026 781 627 815 402 9 1 0 42 5 2 53 268 1 1 0 0 20 70 62 148 69 1 1 1 1 1 0 0 4 10 1
2111 1787 1655 1540 1848 1668 1435 1601 1473 1311 927 808 863 578 510 181 181 48 1 0 1 1 48 26 1 1 1 0 0 0 71 220 1 1 1 2 2 6 6 15 7 1 0
1790 1744 1611 691 798 1373 1419 1508 1490 1395 1301 655 241 315 638 739 81 68 12 0 0 0 0 0 1 1 1 0 0 0 1 159 29 1 1 1 0 0 4 1 0 0 0
1680 1618 1460 1086 909 1175 1187 610 478 79 154 258 14 214 192 37 0 0 0 6 18 14 0 0 0 0 0 0 0 0 0 0 0 1 1 0 0 0 0 0 0 0 0
1733 1620 1788 1418 52 1103 1261 279 883 35 5 204 7 111 13 0 0 1 1 0 0 1 2 123 153 167 75 76 16 0 0 0 0 0 0 2 0 0 0 0 0 0 0
2259 1718 1473 1086 979 1077 1602 647 0 1 1 2 1 0 0 1 1 0 2 2 2 1 18 702 666 512 455 273 56 2 0 0 0 0 0 1 0 0 0 0 0 0 0
1789 1643 2016 423 691 1038 575 1084 1180 0 1 1 1 1 0 0 1 0 0 2 2 0 157 524 557 601 485 297 118 0 0 0 0 0 0 0 0 0 0 0 0 0 0
2051 1592 875 654 538 1039 902 544 484 396 13 0 0 0 1 0 0 0 0 1 15 54 90 212 271 406 443 382 281 238 75 10 0 0 0 0 0 0 0 0 0 0 0
1753 1475 1416 1524 1259 699 612 530 999 354 519 322 0 0 0 0 0 0 1 0 38 614 223 172 153 202 307 369 274 100 41 2 0 0 0 0 0 0 0 0 0 0 0
1132 1294 866 307 186 591 726 1045 434 41 187 869 246 0 0 0 0 0 0 0 423 402 484 320 312 310 322 365 65 0 0 0 0 0 0 0 0 0 0 0 0 0 0
1094 1345 185 106 314 373 347 215 25 13 67 476 577 120 0 0 99 0 44 266 760 388 302 470 259 342 342 359 63 0 0 0 0 0 0 0 0 0 0 0 0 0 0
806 819 404 246 656 364 2 0 0 87 26 349 182 0 0 0 0 30 351 336 604 454 390 314 354 333 288 381 359 75 0 0 0 0 0 0 0 0 0 0 0 0 0
0 0 10 478 481 14 2 20 53 217 57 14 464 156 0 27 178 224 332 297 339 608 426 402 387 370 276 205 204 142 79 24 10 19 0 0 0 0 0 0 0 0 0
0 0 0 203 139 6 0 0 131 25 8 27 348 303 119 326 183 57 548 530 430 601 530 318 339 322 159 95 34 158 506 98 2 1 0 0 0 0 0 0 3 0 0
0 0 0 0 14 23 50 64 64 74 104 213 56 611 473 593 60 65 168 48 135 222 467 440 324 376 275 91 0 0 4 48 0 0 0 0 0 0 0 0 0 0 1
0 0 0 13 57 3 0 1 0 0 0 0 0 0 0 32 401 222 530 128 135 216 391 274 299 271 235 67 0 0 0 0 0 2 5 0 0 0 0 0 0 3 8
CIN
-158 -160 -145 -127 -107 -104 -84 -68 -80 -174 -396 -361 -0 -0 -0 -85 -42 -40 -38 -50 -39 -38 -101 -107 -75 -92 -103 -104 -89 -231 -204 -197 -109 -100 -141 -115 -107 -112 -69 -182 -139 -0 -0
-156 -187 -164 -163 -134 -109 -96 -99 -72 -72 -196 -309 -450 -0 -183 -55 -43 -32 -34 -50 -65 -40 -25 -39 -51 -29 -56 -86 -91 -60 -74 -184 -105 -67 -120 -103 -103 -114 -104 -109 -172 -218 -0
-154 -149 -148 -159 -135 -117 -96 -83 -82 -78 -69 -57 -58 -57 -33 -30 -34 -55 -434 -0 -430 -301 -136 -23 -22 -50 -42 -70 -60 -50 -92 -82 -101 -106 -125 -109 -115 -156 -69 -48 -127 -186 -0
-100 -106 -107 -84 -91 -87 -74 -81 -84 -102 -91 -90 -68 -40 -29 -32 -40 -290 -68 -544 -456 -337 -212 -117 -146 -70 -34 -37 -39 -22 -41 -66 -96 -192 -232 -181 -143 -164 -111 -44 -13 -60 -0
-72 -65 -39 -55 -69 -62 -48 -43 -49 -70 -69 -74 -88 -62 -45 -61 -75 -165 -0 -17 -148 -409 -224 -259 -344 -380 -349 -230 -181 -23 -9 -118 -72 -19 -128 -149 -192 -142 -83 -126 -67 -19 -0
-93 -72 -59 -61 -63 -62 -71 -65 -65 -110 -126 -83 -61 -107 -124 -1 -182 -198 -0 -0 -0 -0 -461 -215 -360 -0 -0 -162 -88 -122 -56 -129 -46 -71 -35 -10 -93 -59 -59 -95 -84 -0 -0
-78 -90 -90 -71 -91 -100 -113 -157 -143 -280 -245 -249 -288 -309 -186 -179 -148 -175 -134 -89 -0 -62 -275 -110 -99 -229 -162 -83 -66 -77 -217 -159 -202 -96 -107 -109 -104 -1 -23 -58 -90 -0 -0
-58 -42 -38 -50 -83 -140 -143 -100 -173 -188 -219 -228 -148 -183 -130 -133 -128 -180 -233 -191 -133 -49 -43 -37 -44 -54 -78 -88 -127 -88 -135 -186 -234 -157 -112 -110 -160 -202 -112 -24 -98 -49 -29
-39 -37 -27 -34 -35 -36 -34 -40 -39 -34 -21 -15 -20 -25 -17 -16 -40 -108 -265 -81 -68 -82 -91 -77 -54 -61 -26 -0 -166 -109 -80 -183 -0 -0 -127 -113 -135 -66 -120 -141 -122 -0 -27
-38 -41 -43 -35 -31 -37 -41 -32 -28 -35 -30 -28 -38 -39 -27 -26 -61 -102 -0 -119 -85 -148 -158 -114 -0 -0 -0 -0 -237 -84 -32 -42 -196 -0 -0 -0 -0 -0 -0 -0 -0 -0 -6
-49 -41 -27 -24 -33 -35 -28 -22 -20 -26 -24 -51 -67 -84 -84 -164 -216 -0 -0 -176 -96 -60 -153 -69 -0 -0 -0 -0 -81 -192 -197 -131 -114 -0 -0 -0 -0 -0 -0 -0 -66 -101 -52
-18 -28 -33 -31 -16 -24 -35 -35 -40 -44 -53 -55 -64 -80 -107 -160 -145 -79 -12 -0 -0 -0 -106 -49 -0 -0 -0 -0 -0 -0 -188 -88 -0 -0 -0 -0 -0 -0 -0 -0 -11 -123 -0
-38 -36 -37 -93 -75 -48 -55 -41 -44 -63 -55 -73 -144 -95 -49 -37 -186 -126 -177 -0 -0 -0 -0 -0 -0 -0 -0 -0 -0 -0 -28 -142 -184 -0 -0 -0 -0 -0 -4 -0 -0 -0 -0
-42 -44 -49 -69 -71 -58 -68 -111 -100 -266 -207 -149 -313 -130 -142 -178 -0 -0 -0 -208 -195 -151 -0 -0 -0 -0 -0 -0 -27 -0 -0 -0 -0 -0 -0 -0 -0 -0 -0 -0 -0 -0 -0
-30 -38 -34 -54 -355 -89 -80 -253 -102 -100 -166 -209 -199 -177 -160 -0 -0 -0 -0 -0 -0 -0 -0 -142 -121 -122 -191 -173 -208 -0 -0 -0 -0 -0 -0 -108 -0 -0 -0 -0 -0 -0 -0
-14 -35 -54 -58 -83 -81 -68 -197 -0 -0 -0 -0 -0 -0 -0 -0 -0 -0 -0 -0 -0 -0 -266 -20 -21 -29 -26 -56 -181 -141 -0 -0 -0 -0 -100 -52 -0 -0 -0 -0 -0 -0 -0
-20 -40 -35 -141 -76 -47 -57 -54 -95 -0 -0 -0 -0 -0 -0 -0 -0 -0 -0 -0 -0 -0 -135 -56 -32 -18 -18 -40 -95 -0 -0 -0 -0 -0 -0 -0 -0 -0 -0 -0 -0 -0 -0
-14 -36 -84 -95 -95 -49 -47 -54 -104 -175 -337 -0 -0 -0 -0 -0 -0 -0 -0 -0 -59 -43 -202 -135 -101 -58 -30 -28 -36 -37 -87 -104 -0 -0 -0 -0 -0 -0 -0 -0 -0 -0 -0
-29 -47 -56 -64 -52 -75 -74 -77 -52 -162 -155 -225 -0 -0 -0 -0 -0 -0 -0 -0 -113 -88 -155 -146 -141 -122 -92 -61 -64 -110 -122 -50 -0 -10 -0 -0 -0 -0 -0 -0 -0 -0 -0
-61 -61 -94 -212 -197 -78 -76 -66 -80 -214 -116 -137 -227 -0 -0 -0 -0 -0 -0 -42 -196 -106 -116 -135 -118 -109 -95 -83 -171 -9 -0 -0 -0 -0 -0 -0 -0 -0 -0 -0 -0 -0 -0
-59 -66 -277 -299 -145 -112 -124 -140 -277 -233 -124 -62 -70 -257 -0 -0 -193 -0 -134 -222 -95 -175 -137 -118 -139 -102 -104 -84 -162 -0 -0 -0 -0 -0 -0 -0 -0 -0 -0 -0 -0 -0 -0
-94 -76 -181 -213 -96 -143 -77 -0 -0 -152 -187 -52 -113 -0 -0 -0 -0 -49 -136 -177 -106 -90 -131 -115 -102 -101 -88 -61 -48 -121 -0 -11 -11 -0 -0 -0 -0 -0 -0 -0 -0 -0 -0
-0 -0 -89 -163 -146 -343 -150 -151 -91 -93 -110 -59 -84 -173 -30 -192 -186 -169 -163 -175 -217 -147 -120 -106 -93 -109 -119 -86 -59 -66 -68 -39 -103 -131 -0 -0 -0 -0 -0 -0 -0 -0 -0
-0 -0 -0 -193 -207 -42 -19 -0 -121 -100 -109 -154 -78 -144 -184 -177 -166 -210 -163 -186 -154 -123 -91 -114 -104 -103 -131 -145 -144 -48 -19 -79 -94 -41 -0 -0 -0 -0 -0 -0 -171 -0 -0
-0 -0 -0 -0 -26 -316 -259 -211 -160 -127 -103 -53 -178 -42 -74 -112 -225 -245 -238 -293 -203 -155 -92 -105 -104 -105 -116 -175 -0 -0 -6 -79 -4 -0 -0 -0 -0 -0 -0 -0 -0 -0 -120
-0 -0 -0 -142 -254 -106 -0 -16 -0 -0 -0 -0 -0 -0 -0 -141 -100 -190 -141 -223 -256 -210 -114 -115 -120 -113 -132 -188 -0 -0 -0 -0 -0 -18 -79 -0 -0 -0 -0 -0 -0 -139 -99
Wind_Speed
13 11 8 7 7 6 5 5 6 8 8 7 5 4 6 8 7 6 6 6 6 6 5 6 6 6 6 4 3 3 3 4 4 3 1 5 5 9 8 6 8 7 7
12 12 12 10 7 7 6 6 5 6 10 9 7 9 11 8 7 7 6 4 5 6 7 7 8 5 7 6 4 6 4 4 4 5 1 2 3 7 11 11 8 8 8
10 11 10 8 9 7 7 7 7 8 8 8 9 10 7 7 7 5 8 6 3 1 7 8 10 7 8 5 7 7 4 3 3 3 4 3 2 3 5 6 8 6 8
5 7 8 8 8 7 8 8 11 10 10 10 9 8 9 7 5 6 4 4 6 4 3 4 6 10 11 9 9 8 4 3 3 3 3 3 2 3 3 7 7 4 6
6 6 3 2 3 4 2 2 1 6 9 9 7 7 7 2 8 3 4 6 5 6 5 3 5 11 24 18 4 12 14 2 6 7 5 2 1 3 8 3 3 3 1
6 6 4 5 5 4 4 5 6 6 5 1 4 5 4 6 19 10 9 7 6 5 4 5 2 17 21 23 19 22 13 9 11 13 6 6 4 5 2 3 4 3 2
7 7 7 7 7 7 7 5 6 6 6 6 6 4 3 2 12 14 14 5 3 5 9 10 11 13 20 10 6 11 11 14 15 11 10 8 6 6 6 3 4 4 3
6 6 6 6 5 5 5 4 4 1 0 2 3 4 4 5 9 9 6 5 6 8 8 7 7 8 6 3 4 5 7 6 9 11 9 6 10 12 9 6 6 5 4
6 6 5 4 3 2 3 4 3 3 3 3 4 4 3 4 5 6 5 4 4 6 6 6 8 9 3 6 4 6 5 4 5 7 2 7 13 12 9 6 6 6 2
6 5 5 5 6 6 5 4 2 2 3 3 5 4 6 5 3 4 3 3 4 5 6 5 12 6 7 6 4 4 6 2 4 2 2 3 3 5 10 5 7 7 4
4 3 2 2 3 2 1 1 2 3 4 5 5 5 6 6 5 5 6 4 3 4 4 4 4 9 8 6 6 5 2 4 2 4 3 3 3 2 2 1 4 5 4
5 4 2 1 3 2 2 3 2 3 4 6 5 4 4 6 8 6 5 2 2 2 4 3 2 5 5 6 5 4 6 2 3 3 4 3 3 2 2 3 4 4 3
4 3 2 3 1 1 2 4 3 2 2 2 4 3 3 3 3 5 5 7 6 2 2 1 4 5 3 4 4 7 7 2 3 3 4 3 3 4 3 6 8 11 10
4 3 2 3 3 2 1 2 2 2 3 3 3 4 2 1 4 5 5 5 7 4 3 2 2 3 4 1 2 4 4 3 3 3 3 3 3 3 4 6 7 7 6
4 4 5 4 5 5 2 0 1 4 2 2 2 3 3 3 2 2 2 4 4 4 7 1 0 1 2 2 3 3 3 4 3 3 3 3 3 4 3 4 4 3 5
2 4 4 4 5 4 4 3 10 6 6 9 6 4 1 5 0 3 5 6 6 7 3 2 1 2 1 2 2 2 2 4 3 3 3 3 4 3 4 3 4 6 6
3 4 3 2 1 2 2 2 3 1 3 5 4 1 1 2 3 4 4 9 5 3 0 3 3 3 2 3 3 3 3 3 4 3 4 4 4 4 5 3 3 3 2
1 3 3 3 3 2 2 2 1 4 3 2 4 5 4 7 7 7 5 5 3 2 2 2 2 3 3 2 3 1 2 1 3 3 4 4 4 4 4 3 2 3 3
1 3 3 3 4 4 2 2 2 3 4 4 2 1 6 7 7 6 3 2 3 1 2 2 1 1 2 3 4 4 3 2 3 4 4 4 4 4 4 3 3 4 4
3 9 6 3 3 3 4 2 2 1 2 4 4 4 4 3 2 3 4 4 3 2 3 4 3 2 2 4 4 3 3 2 2 2 3 4 4 4 4 5 4 3 3
4 6 7 4 3 3 2 2 2 2 1 2 2 6 12 5 4 4 3 5 4 5 5 5 4 3 4 4 3 3 4 3 3 3 3 3 4 4 4 4 4 4 3
2 4 4 5 4 3 1 1 1 3 3 2 4 2 5 3 2 3 4 2 4 5 3 3 3 4 4 4 5 5 4 4 3 4 4 4 4 4 4 4 4 3 3
4 5 3 5 4 3 1 2 3 2 4 3 4 4 4 2 3 5 0 2 4 3 4 3 4 3 3 3 2 4 5 5 5 5 4 4 4 4 5 4 3 2 3
4 5 4 2 4 2 1 2 4 3 4 4 1 4 4 4 4 2 2 4 4 2 2 3 4 6 5 3 0 1 4 4 5 5 7 5 5 5 4 2 3 4 3
5 5 6 4 5 3 1 4 4 5 3 1 2 4 5 6 4 5 5 4 2 2 2 2 4 7 6 6 4 3 3 11 8 8 5 6 7 7 5 3 3 3 3
5 5 4 2 3 4 3 2 2 3 2 1 3 1 3 4 5 5 4 3 4 5 3 4 6 7 7 6 7 8 6 5 9 10 6 5 5 5 4 4 7 4 4
Wind_Direction
187 185 176 185 184 188 198 216 207 149 187 220 228 201 228 221 201 203 223 247 260 263 257 254 261 247 248 261 281 282 249 167 192 297 169 174 157 166 173 168 164 160 175
183 177 185 184 175 181 198 206 204 198 180 203 217 216 223 214 205 204 226 287 309 285 265 274 271 270 260 260 255 257 246 246 166 190 190 182 170 182 179 167 169 176 170
170 175 183 181 184 183 185 203 208 198 208 208 200 214 216 215 208 191 130 156 149 358 321 292 283 280 272 258 253 257 247 244 248 153 185 189 199 169 179 167 170 168 184
143 151 170 180 183 191 200 200 208 209 208 208 213 213 216 212 203 167 116 175 203 198 175 340 338 304 279 270 265 279 276 338 277 250 229 221 169 208 157 171 187 168 188
123 106 108 148 133 81 56 207 182 207 215 216 215 238 231 112 49 352 242 254 221 188 125 150 252 284 289 283 287 268 251 242 347 341 295 304 205 182 196 197 159 137 164
62 48 72 84 79 62 34 29 18 27 22 52 320 327 52 140 200 209 237 259 296 318 296 272 217 267 279 276 276 258 227 193 198 228 209 203 202 301 289 197 133 125 174
60 48 49 53 57 59 56 48 61 41 16 28 25 10 60 319 204 218 212 236 246 271 272 257 231 237 257 254 261 259 242 225 207 209 193 189 205 158 222 185 162 159 154
86 81 77 71 63 43 40 60 57 69 63 285 239 272 257 245 234 243 205 223 251 251 249 263 251 252 261 252 274 255 252 239 228 211 206 203 210 175 196 203 172 121 89
61 57 56 47 35 27 29 25 25 18 3 342 333 316 301 315 168 193 181 225 260 280 285 291 272 255 44 322 346 319 287 274 45 43 115 155 160 166 174 143 148 139 128
78 74 58 45 56 55 54 46 9 10 357 355 330 321 305 302 258 194 261 325 341 349 346 12 42 75 80 35 37 350 337 300 163 141 119 96 134 166 158 162 152 155 130
137 128 121 124 105 105 39 331 334 343 349 322 310 348 9 31 55 62 36 7 17 338 327 350 41 26 24 17 58 61 29 328 108 127 108 99 91 83 39 351 160 145 142
115 109 116 9 99 89 17 327 328 336 330 333 340 48 34 46 48 65 71 86 1 327 326 36 67 49 32 38 51 36 13 67 113 109 120 113 105 108 130 243 87 86 94
127 148 135 84 17 276 285 299 344 320 316 347 71 92 60 43 49 31 353 316 291 285 341 35 115 123 96 66 49 59 39 63 104 117 112 96 98 112 85 82 81 70 62
152 171 212 184 254 242 338 136 110 52 58 65 58 68 96 57 34 15 2 1 4 29 16 355 353 78 70 70 5 48 59 60 85 84 86 102 117 102 116 128 111 106 98
190 223 234 214 215 250 221 111 202 62 92 104 49 71 66 21 14 12 352 346 350 327 319 276 270 322 39 11 13 55 58 60 69 90 104 97 96 105 86 96 106 71 95
246 266 245 249 216 216 218 224 60 93 109 90 88 77 104 90 303 0 353 333 335 336 338 317 348 335 288 173 121 56 21 82 89 96 99 98 98 94 104 79 83 104 112
234 292 323 295 294 197 234 204 226 338 61 83 92 48 292 217 272 295 355 328 300 27 273 36 38 25 18 55 153 168 177 168 163 135 113 111 113 114 132 133 128 122 101
303 262 285 280 291 224 202 281 49 156 199 198 220 225 254 286 292 316 336 316 313 104 247 87 51 31 29 29 27 29 116 121 137 125 124 127 132 138 129 125 113 109 121
270 296 303 281 308 254 252 291 13 155 198 153 146 270 237 255 282 288 318 253 291 177 165 100 88 74 91 90 76 55 51 117 141 139 132 137 140 144 132 133 139 144 139
282 261 252 269 299 330 294 262 135 84 54 176 191 203 159 133 242 229 213 242 252 157 119 152 188 200 127 129 122 114 94 73 121 151 157 154 156 162 149 156 161 165 180
273 221 222 253 249 264 313 122 168 123 270 276 225 179 190 176 231 254 214 216 210 160 146 162 172 158 147 152 155 138 148 164 181 169 151 154 156 149 149 159 169 160 160
274 246 235 227 245 159 185 309 329 232 243 228 205 190 163 213 238 18 343 67 85 325 155 153 168 175 163 160 164 169 168 178 179 174 169 162 144 140 145 156 177 165 162
306 306 288 250 150 176 332 326 312 262 250 251 166 206 172 174 191 150 180 121 139 156 273 141 159 154 126 127 158 156 164 177 182 164 158 142 144 152 164 167 164 147 153
275 291 301 211 139 153 286 295 307 245 255 282 173 188 154 176 252 353 125 145 123 142 200 198 153 157 159 137 148 160 187 157 147 157 145 149 161 165 153 157 176 177 163
249 271 283 212 182 195 258 280 287 307 292 22 109 175 164 193 173 180 144 144 140 212 255 188 160 149 153 135 123 122 143 149 148 155 163 160 163 169 167 183 163 177 170
246 276 236 193 176 188 218 229 299 339 21 91 48 46 185 163 173 183 184 195 179 204 182 147 145 149 155 156 143 125 139 152 161 169 160 149 150 160 174 190 191 195 206